TimeCDT,TemperatureF,Dew PointF,Humidity,Sea Level PressureIn,VisibilityMPH,Wind Direction,Wind SpeedMPH,Gust SpeedMPH,PrecipitationIn,Events,Conditions,WindDirDegrees,DateUTC
12:43 AM,53.6,51.8,94,30.02,10.0,NW,12.7,18.4,0.10,Rain,Light Rain,320,2013-05-03 05:43:00
12:53 AM,53.1,51.1,93,30.01,8.0,NW,15.0,-,0.11,Rain,Light Rain,310,2013-05-03 05:53:00
1:16 AM,51.8,50.0,94,30.01,6.0,NW,13.8,-,0.03,Rain,Light Rain,320,2013-05-03 06:16:00
1:53 AM,51.1,48.9,92,29.98,6.0,NW,13.8,20.7,0.11,Rain,Rain,320,2013-05-03 06:53:00
2:37 AM,50.0,46.4,87,29.97,10.0,NW,11.5,23.0,0.08,Rain,Light Rain,310,2013-05-03 07:37:00
2:53 AM,50.0,46.9,89,29.96,6.0,NNW,9.2,18.4,0.09,Rain,Light Rain,330,2013-05-03 07:53:00
3:06 AM,50.0,46.4,87,29.97,10.0,NNW,12.7,21.9,0.01,Rain,Light Rain,330,2013-05-03 08:06:00
3:35 AM,48.2,46.4,93,29.97,6.0,NW,11.5,16.1,0.03,Rain,Light Rain,310,2013-05-03 08:35:00
3:53 AM,46.9,45.0,93,29.97,7.0,NW,13.8,20.7,0.04,Rain,Light Rain,320,2013-05-03 08:53:00
4:04 AM,46.4,44.6,93,29.97,3.0,NW,12.7,24.2,0.04,Rain,Rain,310,2013-05-03 09:04:00
4:53 AM,46.0,43.0,89,29.95,5.0,NW,13.8,-,0.11,Rain,Rain,320,2013-05-03 09:53:00
5:15 AM,46.4,42.8,87,29.95,4.0,NW,11.5,18.4,0.06,Rain,Rain,310,2013-05-03 10:15:00
5:53 AM,45.0,42.1,90,29.96,10.0,NW,10.4,18.4,0.11,Rain,Light Rain,310,2013-05-03 10:53:00
6:51 AM,42.8,41.0,93,29.96,4.0,NNW,13.8,19.6,0.09,Rain,Rain,330,2013-05-03 11:51:00
6:53 AM,43.0,41.0,93,29.95,4.0,NNW,12.7,19.6,0.10,Rain,Rain,330,2013-05-03 11:53:00
7:53 AM,42.1,39.9,92,29.96,2.5,NW,11.5,-,0.22,Rain,Heavy Rain,310,2013-05-03 12:53:00
7:59 AM,42.8,39.2,87,29.96,3.0,NW,12.7,19.6,0.01,Rain,Rain,310,2013-05-03 12:59:00
8:33 AM,42.8,39.2,87,29.97,2.0,WNW,11.5,21.9,0.11,Rain,Rain,300,2013-05-03 13:33:00
8:35 AM,42.8,39.2,87,29.97,1.8,NW,10.4,21.9,0.12,Rain,Rain,310,2013-05-03 13:35:00
8:53 AM,41.0,39.0,93,29.96,1.5,NW,10.4,19.6,0.24,Rain,Heavy Rain,310,2013-05-03 13:53:00
9:09 AM,41.0,39.2,93,29.95,2.0,NW,8.1,18.4,0.08,Rain,Rain,320,2013-05-03 14:09:00
9:17 AM,41.0,39.2,93,29.95,1.8,NW,9.2,-,0.13,Rain,Heavy Rain,320,2013-05-03 14:17:00
9:37 AM,41.0,39.2,93,29.95,1.8,NNW,10.4,-,0.28,Rain,Heavy Rain,330,2013-05-03 14:37:00
9:53 AM,41.0,39.9,96,29.94,1.8,NNW,8.1,-,0.40,Rain,Heavy Rain,330,2013-05-03 14:53:00
10:04 AM,41.0,39.2,93,29.95,2.0,NW,5.8,-,0.07,Rain,Rain,320,2013-05-03 15:04:00
10:17 AM,42.8,-9999,N/A,29.94,3.0,NNW,9.2,-,0.11,Rain,Rain,330,2013-05-03 15:17:00
10:32 AM,42.8,-9999,N/A,29.95,5.0,WNW,8.1,-,0.13,Rain,Light Rain,300,2013-05-03 15:32:00
10:46 AM,42.8,-9999,N/A,29.95,3.0,WNW,4.6,-,0.16,Rain,Light Rain,300,2013-05-03 15:46:00
10:53 AM,42.1,-9999,N/A,29.96,2.5,WNW,6.9,-,0.18,Rain,Rain,300,2013-05-03 15:53:00
11:06 AM,42.8,-9999,N/A,29.96,2.5,WNW,10.4,-,0.05,Rain,Rain,290,2013-05-03 16:06:00
11:14 AM,42.8,-9999,N/A,29.96,3.0,WNW,8.1,-,0.08,Rain,Rain,300,2013-05-03 16:14:00
11:24 AM,42.8,-9999,N/A,29.96,3.0,WNW,8.1,-,0.11,Rain,Rain,300,2013-05-03 16:24:00
11:31 AM,42.8,-9999,N/A,29.95,3.0,WNW,10.4,-,0.13,Rain,Rain,290,2013-05-03 16:31:00
11:43 AM,42.8,-9999,N/A,29.94,3.0,WNW,11.5,-,0.16,Rain,Rain,300,2013-05-03 16:43:00
11:53 AM,42.1,-9999,N/A,29.95,4.0,NW,9.2,-,0.18,Rain,Rain,310,2013-05-03 16:53:00
12:03 PM,42.8,-9999,N/A,29.94,5.0,WNW,6.9,-,0.02,Rain,Rain,300,2013-05-03 17:03:00
12:34 PM,42.8,-9999,N/A,29.94,4.0,NW,6.9,-,0.07,Rain,Rain,310,2013-05-03 17:34:00
12:46 PM,42.8,-9999,N/A,29.94,6.0,West,10.4,-,0.08,Rain,Light Rain,280,2013-05-03 17:46:00
12:53 PM,43.0,-9999,N/A,29.92,4.0,NW,9.2,-,0.10,Rain,Light Rain,320,2013-05-03 17:53:00
1:00 PM,42.8,-9999,N/A,29.93,3.0,WNW,10.4,-,0.01,Rain,Rain,290,2013-05-03 18:00:00
1:16 PM,42.8,-9999,N/A,29.95,5.0,West,12.7,-,0.04,Rain,Light Rain,270,2013-05-03 18:16:00
1:32 PM,42.8,-9999,N/A,29.93,6.0,WNW,12.7,19.6,0.05,Rain,Light Rain,290,2013-05-03 18:32:00
1:39 PM,42.8,-9999,N/A,29.93,4.0,WNW,13.8,20.7,0.07,Rain,Rain,300,2013-05-03 18:39:00
1:53 PM,43.0,-9999,N/A,29.94,5.0,West,9.2,-,0.09,Rain,Light Rain,280,2013-05-03 18:53:00
2:32 PM,44.6,39.2,81,29.92,7.0,WNW,10.4,-,0.07,Rain,Light Rain,290,2013-05-03 19:32:00
2:53 PM,43.0,39.9,89,29.93,4.0,WNW,12.7,-,0.11,Rain,Light Rain,290,2013-05-03 19:53:00
3:01 PM,42.8,39.2,87,29.92,3.0,West,10.4,17.3,0.02,Rain,Rain,280,2013-05-03 20:01:00
3:11 PM,42.8,39.2,87,29.91,8.0,West,13.8,-,0.03,Rain,Light Rain,280,2013-05-03 20:11:00
3:20 PM,42.8,39.2,87,29.91,10.0,West,15.0,20.7,0.03,Rain,Light Rain,280,2013-05-03 20:20:00
3:29 PM,42.8,39.2,87,29.92,10.0,WNW,16.1,23.0,0.03,Rain,Light Rain,290,2013-05-03 20:29:00
3:49 PM,42.8,39.2,87,29.93,10.0,WNW,12.7,19.6,0.03,,Overcast,290,2013-05-03 20:49:00
3:53 PM,43.0,39.0,86,29.93,10.0,West,9.2,19.6,0.03,,Overcast,280,2013-05-03 20:53:00
4:01 PM,42.8,39.2,87,29.93,10.0,West,10.4,17.3,N/A,,Overcast,280,2013-05-03 21:01:00
4:53 PM,43.0,39.0,86,29.94,9.0,West,8.1,17.3,N/A,,Overcast,270,2013-05-03 21:53:00
5:11 PM,42.8,39.2,87,29.94,10.0,West,10.4,-,N/A,,Overcast,270,2013-05-03 22:11:00
5:26 PM,44.6,39.2,81,29.94,10.0,West,10.4,-,N/A,,Overcast,270,2013-05-03 22:26:00
5:41 PM,42.8,39.2,87,29.94,5.0,West,10.4,18.4,0.00,Rain,Light Rain,270,2013-05-03 22:41:00
5:53 PM,43.0,39.0,86,29.93,10.0,West,12.7,-,0.00,,Overcast,280,2013-05-03 22:53:00
6:05 PM,42.8,39.2,87,29.93,7.0,West,11.5,-,N/A,,Overcast,280,2013-05-03 23:05:00
6:19 PM,42.8,39.2,87,29.94,5.0,West,10.4,18.4,0.00,Rain,Light Rain,270,2013-05-03 23:19:00
6:53 PM,43.0,39.0,86,29.95,7.0,West,15.0,21.9,0.00,Rain,Light Rain,270,2013-05-03 23:53:00
7:20 PM,42.8,37.4,81,29.95,10.0,West,10.4,-,0.00,,Overcast,270,2013-05-04 00:20:00
7:27 PM,42.8,37.4,81,29.95,10.0,West,12.7,19.6,0.00,,Overcast,280,2013-05-04 00:27:00
7:34 PM,42.8,37.4,81,29.96,10.0,West,10.4,19.6,0.00,,Overcast,270,2013-05-04 00:34:00
7:53 PM,42.1,37.0,82,29.96,10.0,West,11.5,-,0.00,,Overcast,270,2013-05-04 00:53:00
8:45 PM,42.8,37.4,81,29.97,10.0,West,9.2,-,N/A,,Overcast,270,2013-05-04 01:45:00
8:53 PM,42.1,36.0,79,29.98,10.0,West,8.1,-,N/A,,Overcast,270,2013-05-04 01:53:00
9:53 PM,39.9,35.1,83,29.99,10.0,West,6.9,-,N/A,,Clear,260,2013-05-04 02:53:00
10:53 PM,37.9,35.1,89,29.98,10.0,WSW,5.8,-,N/A,,Clear,240,2013-05-04 03:53:00
11:53 PM,37.9,35.1,89,29.96,10.0,WSW,3.5,-,N/A,,Clear,250,2013-05-04 04:53:00